Location: Unspecified
(0.0000°N, 0.0000°E)
Time: 20:29:49
(UTC+00:00)

Amateur Radio Satellites - All Passes

Search period start: 26 January 2015 19:59
Search period end: 27 January 2015 19:59
Location: Unspecified, 0.0000°N, 0.0000°E

Satellite Date Start Highest point End Downlink Frequencies (MHz)
Time Altitude Azimuth
ISS 26 Jan 20:08:45 20:12:00 77° 127° (SE) 20:15:15 145.825
SEEDS 26 Jan 20:13:16 20:17:09 34° 79° (E) 20:21:03 437.485
BRITE-PL 26 Jan 20:39:44 20:44:03 53° 259° (W) 20:48:40 437.365/2234.400
COMPASS 1 26 Jan 20:44:01 20:48:17 80° 79° (ENE) 20:52:32 437.405
HO-68 26 Jan 20:48:55 20:56:04 70° 256° (WSW) 21:03:10 435.675
CANX-2 26 Jan 20:48:56 20:53:08 48° 259° (W) 20:57:16 2200.000
SO-50 26 Jan 20:50:20 20:54:21 26° 66° (ENE) 20:58:25 436.795
GOMX 1 26 Jan 20:51:01 20:55:27 61° 259° (W) 21:00:12 467.674
Oscar 11 26 Jan 21:03:48 21:08:00 48° 79° (E) 21:12:14 145.826/435.025
SRMSAT 26 Jan 21:10:00 21:10:39 10° 356° (N) 21:11:15 437.500
AAUSAT CUBESAT 2 26 Jan 21:12:57 21:17:01 44° 259° (W) 21:21:03 437.432
CUTE 1.7 + AOD 2 26 Jan 21:14:13 21:17:46 24° 260° (W) 21:21:12 437.475
DOVE 4 26 Jan 21:18:08 21:22:24 40° 260° (W) 21:26:53 437.250
CUBEBUG 2 26 Jan 21:24:13 21:28:42 60° 79° (ENE) 21:33:17 437.445
DELFI C3 26 Jan 21:25:50 21:29:58 81° 79° (E) 21:34:04 145.870
CINEMA 3 26 Jan 21:27:53 21:32:25 61° 259° (W) 21:37:08 145.822/145.860
UKube-1 26 Jan 21:37:20 21:41:39 73° 77° (ENE) 21:45:58 .
NANOSAT C BR1 26 Jan 21:44:16 21:46:00 13° 100° (E) 21:48:01 145.865
ZACube-1 26 Jan 21:45:32 21:50:00 77° 78° (ENE) 21:54:32 437.345
UNISAT 6 26 Jan 21:46:27 21:50:07 28° 101° (E) 21:53:49 437.425
DX 1 26 Jan 21:54:27 21:58:43 58° 258° (WSW) 22:02:58 434.975-435.025
QB50P2 26 Jan 21:55:30 21:58:33 20° 101° (E) 22:01:43 145.880/145.840
FUNcube-1 26 Jan 21:58:34 22:03:02 71° 260° (W) 22:07:32 145.935
ESTCUBE 1 26 Jan 21:59:20 22:01:22 13° 80° (E) 22:03:42 437.505/2401.250
AISAT 26 Jan 22:04:15 22:08:30 49° 78° (ENE) 22:12:47 437.250
QB50P1 26 Jan 22:05:27 22:09:01 27° 101° (E) 22:12:40 145.935-145.965
UWE-3 26 Jan 22:11:11 22:15:22 36° 260° (W) 22:19:34 435.000/436.395/437.385
HUMSAT D 26 Jan 22:12:51 22:17:09 88° 81° (E) 22:21:29 437.325/437.525
50 SAT 26 Jan 22:17:34 22:21:40 71° 78° (ENE) 22:25:45 437.505
POLYITAN 1 26 Jan 22:17:40 22:21:42 41° 101° (ESE) 22:25:44 437.675
ANTELSAT 26 Jan 22:21:32 22:25:51 86° 282° (WNW) 22:30:08 437.575/2403.000
JUGNU 26 Jan 22:24:10 22:27:33 15° 12° (NNE) 22:31:01 437.505
TIGRISAT 26 Jan 22:31:12 22:35:28 64° 281° (WNW) 22:39:42 435.000
SO-50 26 Jan 22:31:33 22:34:48 17° 246° (WSW) 22:37:48 436.795
BUGSAT 1 26 Jan 22:32:56 22:37:04 49° 101° (E) 22:41:12 437.445
VELOX 1 26 Jan 22:34:04 22:38:26 62° 258° (WSW) 22:42:46 145.980
AIST 1 26 Jan 22:38:22 22:42:00 26° 85° (E) 22:45:44
POPSAT HIP 1 26 Jan 22:39:08 22:43:25 87° 101° (E) 22:47:42 437.405
DUCHIFAT 1 26 Jan 22:43:38 22:47:55 81° 279° (W) 22:52:10 145.980
CUBEBUG 1 26 Jan 22:51:51 22:56:10 71° 79° (ENE) 23:00:28 437.445
SRMSAT 26 Jan 22:59:12 23:00:59 11° 7° (N) 23:02:50 437.500
NANOSAT C BR1 26 Jan 23:18:13 23:21:47 25° 281° (W) 23:25:14 145.865
UNISAT 6 26 Jan 23:25:20 23:26:50 11° 280° (W) 23:28:00 437.425
QB50P2 26 Jan 23:31:33 23:34:21 16° 280° (W) 23:36:57 145.880/145.840
ESTCUBE 1 26 Jan 23:34:20 23:38:10 27° 259° (W) 23:41:53 437.505/2401.250
TISAT 1 26 Jan 23:37:16 23:41:18 46° 79° (E) 23:45:22 437.305
QB50P1 26 Jan 23:43:06 23:44:49 12° 280° (W) 23:46:14 145.935-145.965
GONETS M04 26 Jan 23:45:15 23:48:40 13° 97° (E) 23:53:02
JUGNU 27 Jan 00:11:49 00:17:09 33° 19° (NNE) 00:22:30 437.505
SWISSCUBE 27 Jan 00:16:08 00:18:52 16° 80° (E) 00:21:51 437.505
AIST 1 27 Jan 00:18:00 00:19:35 11° 263° (W) 00:20:50
SPROUT 27 Jan 00:25:44 00:29:35 32° 259° (W) 00:33:22 437.525
BEESAT 2 27 Jan 00:30:56 00:31:57 11° 114° (ESE) 00:33:14 435.950
BEESAT 27 Jan 00:31:36 00:35:18 23° 79° (E) 00:39:08 436.000
ITUPSAT 1 27 Jan 00:33:31 00:37:18 24° 79° (E) 00:41:10 437.325
Oscar 19 27 Jan 00:34:12 00:38:33 29° 101° (ESE) 00:43:00 437.125/150
BEESAT 3 27 Jan 00:46:06 00:49:14 23° 113° (ESE) 00:52:29 437.485
SRMSAT 27 Jan 00:46:39 00:51:01 21° 15° (NNE) 00:55:27 437.500
Gurwin Techsat 1B 27 Jan 01:24:07 01:27:41 19° 101° (E) 01:31:30 435.225
GONETS M04 27 Jan 01:36:51 01:45:38 68° 274° (W) 01:54:18
KKS-1 27 Jan 01:40:13 01:43:43 23° 79° (E) 01:47:19 437.445
STARS 27 Jan 01:41:46 01:43:53 14° 80° (E) 01:46:17 437.465
AIST 2 27 Jan 01:46:40 01:50:36 44° 112° (ESE) 01:54:37 435.215
SWISSCUBE 27 Jan 01:52:37 01:56:38 26° 259° (WSW) 02:00:31 437.505
AUBIESAT-1 27 Jan 01:55:57 01:56:44 11° 79° (ENE) 01:57:53 437.475
JUGNU 27 Jan 02:00:19 02:06:18 89° 5° (N) 02:12:17 437.505
BEESAT 2 27 Jan 02:06:39 02:10:03 25° 293° (WNW) 02:13:25 435.950
HORYU 2 27 Jan 02:07:07 02:08:44 12° 100° (E) 02:10:40 437.375
BEESAT 27 Jan 02:09:46 02:13:03 18° 259° (W) 02:16:07 436.000
ITUPSAT 1 27 Jan 02:11:52 02:15:05 17° 259° (W) 02:18:04 437.325
AO-7 27 Jan 02:14:27 02:15:09 10° 104° (ESE) 02:16:53 29.400- 29.500
Oscar 19 27 Jan 02:14:34 02:17:49 16° 281° (W) 02:20:46 437.125/150
ITAMSAT 1 27 Jan 02:22:17 02:27:20 49° 282° (WNW) 02:32:22 435.822/435.867
BEESAT 3 27 Jan 02:25:26 02:27:17 12° 295° (WNW) 02:28:52 437.485
PCSat 27 Jan 02:31:49 02:35:03 17° 112° (ESE) 02:38:35 145.827
SRMSAT 27 Jan 02:34:46 02:40:31 51° 20° (NNE) 02:46:17 437.500
M-CUBED/EXP-1 PRIME 27 Jan 02:51:23 02:56:05 82° 75° (ENE) 03:00:28 437.505
Gurwin Techsat 1B 27 Jan 03:03:04 03:07:33 27° 281° (W) 03:11:57 435.225
STARS 27 Jan 03:16:35 03:20:16 25° 259° (W) 03:23:51 437.465
KKS-1 27 Jan 03:17:33 03:20:15 15° 259° (W) 03:22:43 437.445
DANDE 27 Jan 03:21:26 03:26:34 28° 92° (E) 03:32:59 436.750
AUBIESAT-1 27 Jan 03:27:22 03:31:40 36° 254° (WSW) 03:35:38 437.475
HORYU 2 27 Jan 03:41:29 03:45:19 28° 281° (W) 03:49:04 437.375
JAS-2 27 Jan 03:44:08 03:49:46 33° 104° (ESE) 03:56:10 435.910
RS-15 27 Jan 03:49:04 04:00:21 77° 112° (ESE) 04:11:15 29.354- 29.394
JUGNU 27 Jan 03:50:07 03:55:27 34° 199° (SSW) 04:00:44 437.505
AO-7 27 Jan 03:59:39 04:07:58 83° 284° (WNW) 04:16:16 29.400- 29.500
O/OREOS (USA 219) 27 Jan 03:59:54 04:04:19 46° 255° (WSW) 04:08:43 437.305
CUSAT 1 27 Jan 04:04:06 04:10:28 90° 267° (W) 04:18:28 437.405
PCSat 27 Jan 04:13:36 04:18:23 32° 290° (WNW) 04:23:06 145.827
SRMSAT 27 Jan 04:23:56 04:29:45 57° 201° (SSW) 04:35:34 437.500
MOZHAYETS 4 27 Jan 04:34:23 04:39:03 86° 258° (WSW) 04:43:39
VERMONT LUNAR 27 Jan 04:47:00 04:47:47 11° 140° (SE) 04:48:42 437.305
DANDE 27 Jan 05:04:14 05:09:51 31° 281° (W) 05:16:24 436.750
PHONESAT 2.4 27 Jan 05:28:28 05:30:25 14° 139° (SE) 05:32:29 2401.200-2431.200
JAS-2 27 Jan 05:29:36 05:34:46 25° 279° (W) 05:40:10 435.910
JUGNU 27 Jan 05:41:38 05:45:01 15° 192° (SSW) 05:48:18 437.505
Cubesat XI-IV 27 Jan 05:43:12 05:48:27 57° 102° (ESE) 05:53:45 437.490
PRISM 27 Jan 05:54:23 05:58:32 67° 78° (ENE) 06:02:38 437.425
CUTE-I 27 Jan 06:03:53 06:09:15 84° 283° (WNW) 06:14:39 437.470
RS-15 27 Jan 06:06:47 06:12:57 15° 296° (WNW) 06:17:55 29.354- 29.394
YUBILEINY 27 Jan 06:14:35 06:20:16 20° 84° (E) 06:26:34 435.215
SRMSAT 27 Jan 06:14:36 06:19:12 23° 196° (SSW) 06:23:45 437.500
CUBESAT XI-V 27 Jan 06:19:08 06:23:46 87° 79° (E) 06:28:21 437.345
VERMONT LUNAR 27 Jan 06:22:34 06:25:53 43° 317° (NW) 06:29:11 437.305
STRAND 1 27 Jan 06:58:29 07:03:24 48° 258° (WSW) 07:08:15 437.568
PHONESAT 2.4 27 Jan 07:05:38 07:08:57 34° 318° (NW) 07:12:14 2401.200-2431.200
BRITE-PL 27 Jan 07:29:48 07:33:27 20° 99° (E) 07:37:11 437.365/2234.400
GOMX 1 27 Jan 07:39:29 07:42:10 15° 98° (E) 07:45:02 467.674
ISS 27 Jan 07:42:58 07:46:06 43° 54° (NE) 07:49:15 145.825
CUTE 1.7 + AOD 2 27 Jan 07:46:20 07:48:54 16° 100° (E) 07:51:39 437.475
DOVE 4 27 Jan 08:03:20 08:06:40 19° 99° (E) 08:10:05 437.250
SRMSAT 27 Jan 08:07:05 08:09:10 12° 188° (S) 08:11:11 437.500
YUBILEINY 27 Jan 08:08:34 08:17:01 50° 266° (W) 08:25:25 435.215
CINEMA 3 27 Jan 08:12:26 08:12:39 10° 98° (E) 08:13:15 145.822/145.860
SEEDS 27 Jan 08:19:21 08:23:16 41° 101° (E) 08:27:15 437.485
HO-68 27 Jan 08:40:21 08:47:31 83° 284° (WNW) 08:54:43 435.675
UWE-3 27 Jan 08:49:00 08:50:58 13° 99° (E) 08:53:11 435.000/436.395/437.385
COMPASS 1 27 Jan 08:49:26 08:53:35 85° 281° (WNW) 08:57:45 437.405
CANX-2 27 Jan 08:56:15 09:00:08 37° 281° (W) 09:04:01 2200.000
SO-50 27 Jan 09:03:06 09:07:15 44° 112° (ESE) 09:11:31 436.795
BRITE-PL 27 Jan 09:07:22 09:11:53 26° 282° (WNW) 09:16:03 437.365/2234.400
Oscar 11 27 Jan 09:12:42 09:16:57 66° 101° (E) 09:21:14 145.826/435.025
GOMX 1 27 Jan 09:15:45 09:20:15 30° 282° (WNW) 09:24:26 467.674
AAUSAT CUBESAT 2 27 Jan 09:18:03 09:21:53 36° 281° (W) 09:25:42 437.432
CUTE 1.7 + AOD 2 27 Jan 09:21:42 09:24:44 19° 280° (W) 09:27:37 437.475
JUGNU 27 Jan 09:23:19 09:25:11 11° 172° (S) 09:27:07 437.505
DELFI C3 27 Jan 09:27:34 09:31:36 86° 101° (E) 09:35:40 145.870
CUBEBUG 2 27 Jan 09:37:40 09:42:04 87° 283° (WNW) 09:46:20 437.445
DOVE 4 27 Jan 09:40:36 09:44:21 21° 282° (WNW) 09:47:48 437.250
CINEMA 3 27 Jan 09:45:43 09:49:53 33° 281° (WNW) 09:53:49 145.822/145.860
UKube-1 27 Jan 09:46:35 09:50:55 82° 282° (WNW) 09:55:17 .
NANOSAT C BR1 27 Jan 09:50:22 09:52:49 16° 80° (E) 09:55:30 145.865
ZACube-1 27 Jan 09:56:26 10:00:43 74° 281° (WNW) 10:04:54 437.345
UNISAT 6 27 Jan 09:59:23 10:03:51 47° 79° (ENE) 10:08:23 437.425
QB50P2 27 Jan 10:02:16 10:05:41 24° 79° (E) 10:09:13 145.880/145.840
DX 1 27 Jan 10:04:32 10:08:42 42° 282° (WNW) 10:12:51 434.975-435.025
FUNcube-1 27 Jan 10:09:25 10:13:33 47° 281° (W) 10:17:35 145.935
QB50P1 27 Jan 10:12:09 10:15:57 33° 79° (E) 10:19:49 145.935-145.965
ESTCUBE 1 27 Jan 10:12:32 10:15:55 21° 101° (E) 10:19:27 437.505/2401.250
AISAT 27 Jan 10:16:44 10:21:14 77° 102° (ESE) 10:25:43 437.250
50 SAT 27 Jan 10:18:38 10:22:35 73° 100° (E) 10:26:34 437.505
HUMSAT D 27 Jan 10:19:08 10:23:17 75° 281° (WNW) 10:27:24 437.325/437.525
UWE-3 27 Jan 10:23:56 10:27:27 23° 281° (W) 10:30:47 435.000/436.395/437.385
POLYITAN 1 27 Jan 10:24:50 10:29:00 53° 79° (ENE) 10:33:10 437.675
ANTELSAT 27 Jan 10:35:02 10:39:37 56° 259° (W) 10:44:13 437.575/2403.000
BUGSAT 1 27 Jan 10:37:03 10:41:00 55° 79° (E) 10:44:58 437.445
TIGRISAT 27 Jan 10:44:27 10:48:52 42° 259° (W) 10:53:17 435.000
AIST 1 27 Jan 10:45:13 10:49:10 37° 95° (E) 10:53:07
POPSAT HIP 1 27 Jan 10:46:10 10:50:24 73° 259° (WSW) 10:54:38 437.405
VELOX 1 27 Jan 10:46:36 10:50:50 41° 281° (WNW) 10:55:03 145.980
DUCHIFAT 1 27 Jan 10:50:22 10:54:34 64° 259° (WSW) 10:58:45 145.980
SPROUT 27 Jan 11:00:01 11:02:00 13° 100° (E) 11:04:16 437.525
CUBEBUG 1 27 Jan 11:02:22 11:06:49 81° 281° (W) 11:11:17 437.445
JUGNU 27 Jan 11:10:31 11:14:58 22° 164° (SSE) 11:19:31 437.505
NANOSAT C BR1 27 Jan 11:25:24 11:28:36 20° 260° (W) 11:31:38 145.865
QB50P2 27 Jan 11:39:26 11:41:31 13° 260° (W) 11:43:19 145.880/145.840
TISAT 1 27 Jan 11:43:33 11:47:45 59° 101° (E) 11:51:58 437.305
SRMSAT 27 Jan 11:46:18 11:49:42 16° 168° (SSE) 11:53:11 437.500
ESTCUBE 1 27 Jan 11:49:36 11:52:41 17° 280° (W) 11:55:34 437.505/2401.250
GONETS M04 27 Jan 12:15:22 12:22:26 30° 85° (E) 12:29:52
BEESAT 2 27 Jan 12:26:31 12:28:21 13° 66° (ENE) 12:30:23 435.950
SPROUT 27 Jan 12:34:25 12:38:00 24° 281° (W) 12:41:28 437.525
SWISSCUBE 27 Jan 12:37:03 12:41:13 31° 102° (ESE) 12:45:28 437.505
BEESAT 3 27 Jan 12:41:41 12:45:03 26° 67° (ENE) 12:48:28 437.485
BEESAT 27 Jan 12:52:57 12:57:30 45° 102° (ESE) 13:02:06 436.000
ITUPSAT 1 27 Jan 12:55:15 12:59:50 47° 101° (ESE) 13:04:30 437.325
JUGNU 27 Jan 12:58:30 13:04:15 57° 159° (SSE) 13:10:03 437.505
Oscar 19 27 Jan 13:07:12 13:12:24 79° 78° (ENE) 13:17:36 437.125/150
ITAMSAT 1 27 Jan 13:18:54 13:23:09 27° 79° (ENE) 13:27:30 435.822/435.867
SRMSAT 27 Jan 13:34:04 13:39:26 34° 161° (SSE) 13:44:50 437.500
AIST 2 27 Jan 13:45:52 13:49:57 58° 68° (ENE) 13:53:59 435.215
STARS 27 Jan 13:52:26 13:55:34 20° 101° (E) 13:58:51 437.465
KKS-1 27 Jan 13:52:36 13:56:38 35° 101° (E) 14:00:44 437.445
Gurwin Techsat 1B 27 Jan 14:01:12 14:06:23 55° 79° (ENE) 14:11:34 435.225
BEESAT 2 27 Jan 14:03:14 14:06:27 22° 247° (WSW) 14:09:33 435.950
GONETS M04 27 Jan 14:11:26 14:19:09 34° 265° (W) 14:26:42
SWISSCUBE 27 Jan 14:16:31 14:18:59 13° 280° (W) 14:21:08 437.505
HORYU 2 27 Jan 14:18:52 14:21:59 19° 79° (E) 14:25:16 437.375
BEESAT 3 27 Jan 14:22:00 14:23:06 11° 246° (WSW) 14:23:54 437.485
O/OREOS (USA 219) 27 Jan 14:34:19 14:36:02 12° 107° (ESE) 14:38:03 437.305
AO-7 27 Jan 14:36:15 14:41:42 20° 76° (ENE) 14:47:40 29.400- 29.500
JUGNU 27 Jan 14:47:36 14:53:19 51° 340° (NNW) 14:59:04 437.505
M-CUBED/EXP-1 PRIME 27 Jan 14:54:31 14:58:02 83° 105° (ESE) 15:01:51 437.505
ITAMSAT 1 27 Jan 14:58:57 15:02:33 18° 259° (W) 15:05:54 435.822/435.867
PCSat 27 Jan 15:06:14 15:11:26 52° 70° (ENE) 15:16:42 145.827
CUSAT 1 27 Jan 15:14:32 15:16:38 14° 76° (ENE) 15:18:42 437.405
JAS-2 27 Jan 15:20:47 15:24:09 16° 82° (E) 15:27:43 435.910
SRMSAT 27 Jan 15:22:43 15:28:44 89° 337° (NNW) 15:34:46 437.500
STARS 27 Jan 15:28:54 15:31:56 18° 280° (W) 15:34:46 437.465
RS-15 27 Jan 15:29:48 15:41:28 66° 68° (ENE) 15:53:36 29.354- 29.394
AUBIESAT-1 27 Jan 15:30:07 15:33:13 28° 283° (WNW) 15:36:28 437.475
HORYU 2 27 Jan 15:55:14 15:58:32 19° 259° (W) 16:01:40 437.375
O/OREOS (USA 219) 27 Jan 16:11:34 16:15:22 26° 286° (WNW) 16:19:03 437.305
DANDE 27 Jan 16:14:32 16:19:16 80° 265° (W) 16:22:46 436.750
AO-7 27 Jan 16:26:18 16:34:24 53° 255° (WSW) 16:42:24 29.400- 29.500
JUGNU 27 Jan 16:38:15 16:42:40 21° 345° (NNW) 16:47:02 437.505
Cubesat XI-IV 27 Jan 16:47:59 16:48:08 10° 80° (E) 16:48:47 437.490
MOZHAYETS 4 27 Jan 16:51:33 16:55:57 49° 281° (W) 17:00:24
CUSAT 1 27 Jan 16:57:56 16:59:28 12° 269° (W) 17:00:38 437.405
JAS-2 27 Jan 17:03:14 17:09:23 41° 257° (WSW) 17:14:47 435.910
CUTE-I 27 Jan 17:05:23 17:08:52 19° 79° (E) 17:12:35 437.470
PHONESAT 2.4 27 Jan 17:10:45 17:12:29 13° 40° (NE) 17:14:22 2401.200-2431.200
SRMSAT 27 Jan 17:12:42 17:18:04 33° 341° (NNW) 17:23:24 437.500
RS-15 27 Jan 17:45:19 17:54:15 22° 244° (WSW) 18:02:24 29.354- 29.394
STRAND 1 27 Jan 17:52:53 17:57:01 26° 101° (ESE) 18:01:18 437.568
PRISM 27 Jan 17:58:33 18:02:42 78° 100° (E) 18:06:55 437.425
VERMONT LUNAR 27 Jan 18:01:17 18:04:45 56° 223° (SW) 18:08:14 437.305
Cubesat XI-IV 27 Jan 18:23:05 18:28:12 48° 258° (WSW) 18:33:17 437.490
JUGNU 27 Jan 18:30:41 18:32:33 11° 353° (N) 18:34:20 437.505
CUBESAT XI-V 27 Jan 18:37:45 18:42:20 51° 281° (W) 18:46:56 437.345
CUTE-I 27 Jan 18:44:18 18:48:51 28° 258° (WSW) 18:53:15 437.470
YUBILEINY 27 Jan 18:46:11 18:54:07 41° 95° (E) 19:02:09 435.215
PHONESAT 2.4 27 Jan 18:47:34 18:51:02 39° 223° (SW) 18:54:29 2401.200-2431.200
SRMSAT 27 Jan 19:04:22 19:07:50 15° 348° (NNW) 19:11:11 437.500
ISS 27 Jan 19:17:29 19:20:15 26° 127° (SE) 19:23:03 145.825
CANX-2 27 Jan 19:30:36 19:31:27 11° 81° (E) 19:32:39 2200.000
STRAND 1 27 Jan 19:32:24 19:36:07 19° 281° (W) 19:39:37 437.568
CUTE 1.7 + AOD 2 27 Jan 19:52:47 19:56:00 21° 80° (E) 19:59:21 437.475
